TimeCST,TemperatureF,Dew PointF,Humidity,Sea Level PressureIn,VisibilityMPH,Wind Direction,Wind SpeedMPH,Gust SpeedMPH,PrecipitationIn,Events,Conditions,WindDirDegrees,DateUTC
12:54 AM,37.0,16.0,42,30.28,10.0,North,11.5,-,N/A,,Partly Cloudy,10,2013-02-20 06:54:00
1:54 AM,36.0,15.1,43,30.29,10.0,NNE,8.1,-,N/A,,Mostly Cloudy,20,2013-02-20 07:54:00
2:54 AM,36.0,12.9,39,30.30,10.0,NNE,9.2,-,N/A,,Mostly Cloudy,20,2013-02-20 08:54:00
3:54 AM,36.0,14.0,41,30.28,10.0,NNE,11.5,-,N/A,,Mostly Cloudy,20,2013-02-20 09:54:00
4:54 AM,34.0,12.9,42,30.29,10.0,NE,12.7,-,N/A,,Mostly Cloudy,50,2013-02-20 10:54:00
5:54 AM,32.0,12.0,44,30.30,10.0,NE,9.2,-,N/A,,Scattered Clouds,50,2013-02-20 11:54:00
6:54 AM,32.0,12.9,45,30.32,10.0,ENE,13.8,-,N/A,,Mostly Cloudy,60,2013-02-20 12:54:00
7:54 AM,32.0,14.0,48,30.36,10.0,ENE,13.8,-,N/A,,Overcast,60,2013-02-20 13:54:00
8:54 AM,32.0,12.2,44,30.36,10.0,NE,8.1,-,N/A,,Overcast,50,2013-02-20 14:54:00
9:54 AM,34.0,12.9,42,30.35,10.0,NNE,8.1,-,N/A,,Overcast,30,2013-02-20 15:54:00
10:54 AM,34.0,12.0,40,30.35,10.0,NE,8.1,-,N/A,,Overcast,40,2013-02-20 16:54:00
11:54 AM,35.1,12.9,40,30.32,10.0,NE,9.2,-,N/A,,Overcast,40,2013-02-20 17:54:00
12:54 PM,35.1,14.0,42,30.29,10.0,NNE,11.5,-,N/A,,Overcast,30,2013-02-20 18:54:00
1:54 PM,36.0,16.0,44,30.30,10.0,NE,8.1,-,0.00,,Overcast,50,2013-02-20 19:54:00
2:54 PM,37.0,14.0,39,30.25,10.0,East,11.5,-,N/A,,Overcast,80,2013-02-20 20:54:00
3:54 PM,37.0,12.9,37,30.22,10.0,NE,11.5,-,N/A,,Overcast,40,2013-02-20 21:54:00
4:54 PM,36.0,14.0,41,30.23,10.0,NE,6.9,-,0.00,,Overcast,40,2013-02-20 22:54:00
5:54 PM,35.1,19.9,54,30.23,10.0,NE,6.9,-,0.01,Rain,Light Rain,50,2013-02-20 23:54:00
6:54 PM,34.0,21.9,61,30.25,10.0,NE,9.2,-,0.00,Rain,Light Rain,40,2013-02-21 00:54:00
7:54 PM,33.1,24.1,70,30.22,10.0,NE,11.5,-,0.01,Rain,Light Rain,50,2013-02-21 01:54:00
8:54 PM,33.1,24.1,70,30.22,10.0,ENE,5.8,-,0.00,,Overcast,60,2013-02-21 02:54:00
9:54 PM,34.0,24.1,67,30.22,10.0,ENE,8.1,-,N/A,,Overcast,60,2013-02-21 03:54:00
10:45 PM,33.8,21.2,60,30.20,10.0,ENE,10.4,-,0.00,,Light Ice Pellets,70,2013-02-21 04:45:00
10:52 PM,33.8,23.0,65,30.21,10.0,ENE,8.1,-,0.00,,Overcast,60,2013-02-21 04:52:00
10:54 PM,34.0,23.0,64,30.22,10.0,ENE,8.1,-,0.00,,Overcast,60,2013-02-21 04:54:00
11:54 PM,34.0,21.9,61,30.20,10.0,ENE,10.4,-,N/A,,Overcast,60,2013-02-21 05:54:00